Simultaneous Nadir Overpasses (SNOs) Predictions

Prediction of SNOs between NOAA-20 and PACE Satellite Orbit:

Table of predicted SNOs for the next 14.0 days since TLE Epoch: 4/17/2024
Index Date (NOAA-20) Time (NOAA-20) Lat,Lon (NOAA-20) SZA (NOAA-20 ) Date (PACE) Time (PACE) Lat,Lon (PACE) SZA (PACE ) Distance(km) Time Diff (sec)
1 04/19/2024 02:49:09 -80.08, -81.54 108.98 04/19/2024 02:50:02 -80.09, -81.69 108.98 3.03 53
2 04/19/2024 03:39:48 79.90, 87.64 70.67 04/19/2024 03:39:07 79.90, 87.54 70.70 2.05 41
3 04/21/2024 07:15:47 -80.10,-148.43 109.69 04/21/2024 07:16:29 -80.10,-148.36 109.72 1.52 42
4 04/21/2024 08:06:27 79.95, 20.44 70.01 04/21/2024 08:05:35 79.95, 20.56 70.02 2.37 52
5 04/23/2024 11:42:23 -80.07, 145.22 110.48 04/23/2024 11:42:54 -80.07, 145.29 110.51 1.39 31
6 04/23/2024 12:33:03 79.92, -45.93 69.22 04/23/2024 12:32:00 79.92, -45.82 69.24 2.06 63
7 04/25/2024 16:09:00 -80.08, 78.51 111.19 04/25/2024 16:09:19 -80.07, 78.66 111.22 2.99 19
8 04/25/2024 16:59:00 78.55,-102.22 66.30 04/25/2024 16:57:47 78.40,-103.09 66.28 26.15 73
9 04/27/2024 20:35:34 -80.00, 12.63 112.03 04/27/2024 20:35:41 -80.00, 12.63 112.04 0.36 7



Historial Predications of SNOs between NOAA-20 and PACE
